EDT,Max TemperatureF,Mean TemperatureF,Min TemperatureF,Max Dew PointF,MeanDew PointF,Min DewpointF,Max Humidity, Mean Humidity, Min Humidity, Max Sea Level PressureIn, Mean Sea Level PressureIn, Min Sea Level PressureIn, Max VisibilityMiles, Mean VisibilityMiles, Min VisibilityMiles, Max Wind SpeedMPH, Mean Wind SpeedMPH, Max Gust SpeedMPH,PrecipitationIn, CloudCover, Events, WindDirDegrees
2012-10-1,62,54,45,47,45,42,93,79,55,29.97,29.93,29.88,10,10,10,12,8,20,0.00,3,,282
2012-10-2,68,58,51,59,55,46,93,84,73,30.00,29.95,29.90,10,9,4,10,6,17,0.03,8,Rain,153
2012-10-3,75,68,60,63,59,57,94,81,56,30.16,30.05,29.97,10,8,2,12,4,,0.00,7,,231
2012-10-4,71,64,57,57,53,45,94,80,42,30.20,30.17,30.11,10,7,0,13,3,21,0.00,4,Fog,268
2012-10-5,71,62,55,57,53,49,87,75,57,30.11,30.03,29.87,10,10,8,14,7,21,0.02,5,Rain,231
2012-10-6,62,52,41,55,42,33,94,82,53,30.08,29.92,29.79,10,8,0,17,8,26,0.39,8,Fog-Rain,292
2012-10-7,48,42,35,38,35,32,93,81,56,30.15,30.07,30.01,10,10,8,13,6,17,0.09,7,Rain,251
2012-10-8,48,42,35,36,34,31,93,79,52,30.27,30.22,30.12,10,10,10,10,7,16,0.00,5,,222
2012-10-9,60,47,35,40,35,32,93,71,41,30.25,30.16,30.02,10,10,9,14,3,21,0.00,4,,165
2012-10-10,55,46,37,43,39,33,87,81,62,30.05,29.93,29.84,10,10,4,18,9,33,0.11,7,Rain,243
2012-10-11,53,43,34,33,29,27,83,60,41,30.24,30.15,30.07,10,10,10,15,12,21,0.00,2,,253
2012-10-12,46,39,30,38,29,19,93,68,40,30.48,30.23,30.05,10,10,8,17,10,26,0.06,6,Rain,311
2012-10-13,48,37,26,37,23,18,75,54,36,30.48,30.36,30.10,10,10,10,15,4,24,0.00,2,Rain,164
2012-10-14,73,60,48,55,49,37,83,66,51,30.07,29.94,29.71,10,9,3,17,13,36,0.08,5,Rain,205
2012-10-15,64,54,44,53,43,37,88,73,51,29.83,29.72,29.59,10,10,7,21,15,37,0.14,7,Rain,267
2012-10-16,48,42,37,38,36,32,93,79,61,29.95,29.89,29.82,10,10,5,15,10,22,0.01,6,Rain,307
2012-10-17,66,50,36,40,35,32,89,57,30,29.98,29.92,29.86,10,10,10,10,4,20,0.00,1,,179
2012-10-18,64,54,46,45,43,39,93,73,48,29.90,29.83,29.77,10,9,3,22,12,34,0.47,4,Rain,175
2012-10-19,64,54,44,52,45,41,96,87,45,29.90,29.78,29.65,10,6,0,12,5,17,0.15,6,Fog-Rain,148
2012-10-20,53,48,42,41,37,34,85,71,59,29.83,29.73,29.65,10,10,10,13,8,26,0.02,7,Rain,230
2012-10-21,57,48,42,41,39,34,89,76,51,30.13,29.99,29.83,10,10,9,17,9,24,0.02,5,Rain,276
2012-10-22,64,52,41,40,37,34,79,56,35,30.18,30.14,30.11,10,10,10,9,5,17,0.00,1,,274
2012-10-23,60,54,48,55,52,38,100,88,59,30.11,30.08,30.03,10,4,0,10,2,,1.41,8,Fog-Rain,236
2012-10-24,66,60,57,58,56,55,94,83,73,30.14,30.11,30.09,10,9,3,8,2,,0.10,8,Rain,254
2012-10-25,78,67,57,54,52,50,83,64,40,30.16,30.12,30.07,10,10,8,14,5,22,0.00,1,,170
2012-10-26,73,61,50,53,51,46,89,74,46,30.14,30.10,30.04,10,8,1,14,9,23,0.00,4,,221
2012-10-27,57,50,42,52,46,41,100,91,78,30.13,30.03,29.93,10,4,0,14,7,23,0.14,8,Fog-Rain,41
2012-10-28,42,40,39,40,38,37,96,92,81,30.05,29.96,29.84,10,4,0,13,7,21,0.28,8,Fog-Rain,9
2012-10-29,48,42,39,44,39,37,93,89,87,29.86,29.58,28.98,10,3,0,30,10,47,1.55,8,Fog-Rain,351
2012-10-30,52,44,37,48,39,34,94,86,76,29.40,29.20,28.93,10,9,3,22,14,38,0.20,8,Rain,117
2012-10-31,39,35,33,37,33,30,93,88,81,29.51,29.43,29.36,10,10,5,10,5,17,0.06,8,Rain,208